Change the Weather History Date:

Monday, November 26, 2012

  Actual Average Record
Temperature  
Mean Temperature 64 °F -  
Max Temperature 80 °F 80 °F 89 °F (1948)
Min Temperature 48 °F 59 °F 34 °F (1950)
Degree Days  
Heating Degree Days 1    
Growing Degree Days 14 (Base 50)    
Moisture  
Dew Point 53 °F    
Average Humidity 70    
Maximum Humidity 93    
Minimum Humidity 40    
Precipitation  
Precipitation 0.00 in - - ()
Sea Level Pressure  
Sea Level Pressure 30.15 in    
Wind  
Wind Speed 3 mph (East)    
Max Wind Speed 10 mph    
Max Gust Speed -    
Visibility 10 miles    
Events      
Averages and records for this station are not official NWS values.
T = Trace of Precipitation, MM = Missing Value Source: NWS Daily Summary

Daily Weather History Graph

Daily Weather History Graph

Search for Another Location

Airport or City:

Trip Planner

Search our weather history database for the weather conditions in past years. The results will help you decide how hot, cold, wet, or windy it might be!

Date:

Astronomy

Nov. 26, 2012 Rise Set
Actual Time 6:54 AM EST 5:34 PM EST
Civil Twilight 6:29 AM EST 5:59 PM EST
Nautical Twilight 6:01 AM EST 6:27 PM EST
Astronomical Twilight 5:33 AM EST 6:55 PM EST
Moon 4:21 PM EST (11/26) 5:09 AM EST (11/26)
Length of Visible Light 11h 29m
Length of Day
10h 39m
Waxing Gibbous, 97% of the Moon is Illuminated
Nov 26
Waxing Gibbous
Nov 28
Full
Dec 6
Last Quarter
Dec 13
New
Dec 20
First Quarter

Hourly Weather History & Observations

Time (EST) Temp. Heat Index Dew Point Humidity Pressure Visibility Wind Dir Wind Speed Gust Speed Precip Events Conditions
12:53 AM 52.0 °F - 46.0 °F 80% 30.13 in 10.0 mi Calm Calm - N/A   Clear
1:53 AM 50.0 °F - 46.0 °F 86% 30.13 in 10.0 mi Calm Calm - N/A   Clear
2:53 AM 51.1 °F - 46.9 °F 86% 30.13 in 10.0 mi Calm Calm - N/A   Clear
3:53 AM 51.1 °F - 46.9 °F 86% 30.13 in 10.0 mi NE 4.6 mph - N/A   Clear
4:53 AM 51.1 °F - 46.9 °F 86% 30.13 in 10.0 mi NE 3.5 mph - N/A   Clear
5:53 AM 48.9 °F - 46.9 °F 93% 30.14 in 10.0 mi ENE 3.5 mph - N/A   Clear
6:53 AM 51.1 °F - 48.9 °F 92% 30.16 in 9.0 mi NE 4.6 mph - N/A   Clear
7:53 AM 53.1 °F - 50.0 °F 89% 30.17 in 8.0 mi ENE 4.6 mph - N/A   Clear
8:53 AM 61.0 °F - 55.0 °F 81% 30.19 in 10.0 mi Calm Calm - N/A   Clear
9:53 AM 70.0 °F - 55.9 °F 61% 30.20 in 10.0 mi Calm Calm - N/A   Clear
10:53 AM 75.0 °F - 57.0 °F 53% 30.19 in 10.0 mi ESE 6.9 mph - N/A   Clear
11:53 AM 77.0 °F - 57.9 °F 52% 30.18 in 10.0 mi South 10.4 mph - N/A   Partly Cloudy
12:53 PM 79.0 °F - 55.9 °F 45% 30.15 in 10.0 mi SE 9.2 mph - N/A   Partly Cloudy
1:53 PM 79.0 °F - 54.0 °F 42% 30.12 in 10.0 mi South 6.9 mph - N/A   Mostly Cloudy
2:53 PM 80.1 °F 80.0 °F 54.0 °F 40% 30.11 in 10.0 mi East 5.8 mph - N/A   Clear
3:53 PM 79.0 °F - 54.0 °F 42% 30.10 in 10.0 mi ESE 5.8 mph - N/A   Clear
4:53 PM 75.0 °F - 57.0 °F 53% 30.12 in 10.0 mi WSW 8.1 mph - N/A   Scattered Clouds
5:53 PM 72.0 °F - 57.0 °F 59% 30.13 in 10.0 mi Calm Calm - N/A   Partly Cloudy
6:53 PM 69.1 °F - 57.9 °F 68% 30.14 in 10.0 mi Calm Calm - N/A   Clear
7:53 PM 64.9 °F - 57.0 °F 75% 30.16 in 10.0 mi Calm Calm - N/A   Clear
8:53 PM 63.0 °F - 57.0 °F 81% 30.18 in 10.0 mi Calm Calm - N/A   Clear
9:53 PM 64.9 °F - 57.0 °F 75% 30.19 in 10.0 mi Calm Calm - N/A   Scattered Clouds
10:53 PM 62.1 °F - 57.0 °F 84% 30.19 in 10.0 mi ESE 4.6 mph - N/A   Scattered Clouds
11:53 PM 63.0 °F - 57.0 °F 81% 30.18 in 10.0 mi Calm Calm - N/A   Clear